This is the latest recevied weather packets stored in our database for station/object W8CEN. If no packets are shown the sender has not sent any weather packets the latest 10 day(s).
| Time | Temp. | Humidity | Pressure | Rain* | Wind** | Luminosity | Snow |
|---|---|---|---|---|---|---|---|
| 1778107599 | 12.78° C | 44% | 991.5 hPa | 0 mm | - | 108 W/m² | - |
| 1778107296 | 12.78° C | 42% | 991.3 hPa | 0 mm | - | 117 W/m² | - |
| 1778106992 | 12.78° C | 40% | 991.3 hPa | 0 mm | - | 113 W/m² | - |
| 1778106688 | 12.78° C | 38% | 991.4 hPa | 0 mm | - | 128 W/m² | - |
| 1778106386 | 12.78° C | 43% | 991.3 hPa | 0 mm | - | 136 W/m² | - |
| 1778106082 | 12.78° C | 40% | 991.4 hPa | 0 mm | - | 131 W/m² | - |
| 1778105780 | 12.78° C | 40% | 991.6 hPa | 0 mm | - | 120 W/m² | - |
| 1778105478 | 13.33° C | 41% | 991.7 hPa | 0 mm | - | 138 W/m² | - |
| 1778105174 | 13.33° C | 39% | 991.6 hPa | 0 mm | - | 153 W/m² | - |
| 1778104869 | 13.89° C | 37% | 991.5 hPa | 0 mm | - | 138 W/m² | - |
| 1778104566 | 13.89° C | 40% | 991.3 hPa | 0 mm | - | 166 W/m² | - |
| 1778104261 | 13.89° C | 39% | 991.6 hPa | 0 mm | - | 373 W/m² | - |
| 1778103959 | 13.89° C | 40% | 991.4 hPa | 0 mm | - | 208 W/m² | - |
| 1778103656 | 13.33° C | 43% | 991.2 hPa | 0 mm | - | 230 W/m² | - |
| 1778103354 | 13.33° C | 41% | 991.3 hPa | 0 mm | - | 209 W/m² | - |
| 1778103051 | 13.33° C | 44% | 991.3 hPa | 0 mm | - | 149 W/m² | - |
| 1778102748 | 13.33° C | 39% | 991.4 hPa | 0 mm | - | 147 W/m² | - |
| 1778102443 | 13.33° C | 43% | 991.1 hPa | 0 mm | - | 143 W/m² | - |
| 1778102139 | 13.33° C | 42% | 991.3 hPa | 0 mm | - | 134 W/m² | - |
| 1778101836 | 13.33° C | 41% | 991.1 hPa | 0 mm | - | 142 W/m² | - |
| 1778101532 | 13.33° C | 39% | 991.3 hPa | 0 mm | - | 134 W/m² | - |
| 1778101229 | 13.89° C | 42% | 991.1 hPa | 0 mm | - | 142 W/m² | - |
| 1778100926 | 13.89° C | 39% | 991 hPa | 0 mm | - | 150 W/m² | - |
| 1778100621 | 13.89° C | 40% | 991.2 hPa | 0 mm | - | 178 W/m² | - |
| 1778100320 | 13.89° C | 42% | 990.9 hPa | 0 mm | - | 182 W/m² | - |
* Rain latest hour (hover to see other rain measurements)
** Current wind speed in m/s (hover to see current wind gust speed)